Location: Atherton
(17.2661°S, 145.4859°E)
Time: 00:39:10
(UTC+10:00)

Vanguard 1 - Pass Details

Date: 01 July 2025
Orbit: 649 x 3822 km, 34.2° (Epoch: 17 July)

Event Time Altitude Azimuth Distance (km) Brightness Sun altitude
Rises 23:07:09 0° 237° (WSW) 5,452 14.0 -71.5°
Enters shadow 23:08:12 - 236° (SW) 5,111 13.8 -71.7°
Reaches altitude 10° 23:11:49 10° 230° (SW) 3,901 - -72.5°
Maximum altitude 23:20:06 36° 165° (SSE) 1,632 - -74.4°
Drops below altitude 10° 23:25:14 10° 97° (E) 2,412 - -75.5°
Sets 23:27:27 0° 88° (E) 3,169 - -75.9°
